Simultaneous Nadir Overpasses (SNOs) Predictions

Prediction of SNOs between NOAA-19 and TERRA Satellite Orbit:

Table of predicted SNOs for the next 14.0 days since TLE Epoch: 2/15/2020
Index Date (NOAA-19) Time (NOAA-19) Lat,Lon (NOAA-19) SZA (NOAA-19 ) Date (TERRA) Time (TERRA) Lat,Lon (TERRA) SZA (TERRA ) Distance(km) Time Diff (sec)
1 02/17/2020 08:45:59 -79.19,-105.25 87.94 02/17/2020 08:46:00 -79.19,-105.36 87.95 2.20 1
2 02/19/2020 14:19:17 79.20, -8.57 91.30 02/19/2020 14:19:45 79.23, -8.53 91.34 3.52 28
3 02/19/2020 15:10:20 -79.20, 158.70 88.72 02/19/2020 15:09:14 -79.16, 158.68 88.78 3.82 66
4 02/21/2020 19:52:41 -79.23, 87.96 89.49 02/21/2020 19:53:33 -79.21, 87.88 89.50 2.49 52
5 02/21/2020 20:43:37 79.19,-104.49 90.49 02/21/2020 20:42:59 79.20,-104.52 90.49 1.21 38
6 02/24/2020 02:17:01 -79.20, -7.84 90.31 02/24/2020 02:16:46 -79.22, -7.86 90.30 1.90 15
7 02/26/2020 07:50:17 79.23, 88.71 88.89 02/26/2020 07:50:31 79.21, 88.64 88.87 2.46 14
8 02/28/2020 13:23:42 -79.25,-174.69 91.93 02/28/2020 13:24:18 -79.23,-174.70 91.94 1.87 36




NCC Satellite Simultaneous Nadir Overpasses (SNOs) Prediction Service
